Tracking 18840 objects as of 19-November-2017
HD Live streaming from Space Station
objects crossing your sky now

FENGYUN 1C DEB

Track FENGYUN 1C DEB now!
10-day predictions


NORAD ID: 30243
Int'l Code: 1999-025XC
Perigee: 857.2 km
Apogee: 877.3 km
Inclination: 99.0 °
Period: 102.1 minutes
Semi major axis: 7238 km
RCS: 0.035 m2 (small)
Launch date: May 10, 1999
Source: People's Republic of China (PRC)
Launch site: Taiyaun Space Center, China (TSC)

Note: This is SATELLITE DEBRIS
aabbcc
Your satellite tracking list
Your tracking list is empty




NASA's NSSDC Master Catalog

Two Line Element Set (TLE):
1 30243U 99025XC  17322.64001985 +.00000090 +00000-0 +76382-4 0  9994
2 30243 098.9626 348.7400 0013846 170.1799 308.2753 14.09785971557417
Source of the keplerian elements: AFSPC